Weather in Kaposvár

Hungary     46°21′49″N   17°46′57″E
temp.,
°C
wind,
m/s
gust,
m/s
humid.,
%
clouds,
%
prec.,
mm/h
press.,
hPa
HPBL,
m
18 may, tue
tue1823:00+9wsw411955 0.0 1010296
02:00+7w39955 0.0 1011177
05:00+7w249459 0.0 101259
08:00+12w35775 0.0 1014351
11:00+16nw57577 0.0 10151334
14:00+19nw35483 0.0 10131908
17:00+19n124713 0.0 10121600
20:00+12ne248484 0.4 101370
19 may, wed
wed1923:00+11nw5794100 0.8 1015224
02:00+10ne41096100 1.4 1013336
05:00+9n3897100 4.9 1013448
08:00+9n51197100 16.7 1014780
11:00+9nnw61394100 3.6 1015901
14:00+9nnw41193100 7.3 1015886
17:00+9wnw41094100 2.1 1015526
20:00+10nw399061 3.3 1015298
20 may, thu
thu2023:00+8w379759 0.4 1016176
02:00+7w4109682 0.5 1016263
05:00+6w3109450 0.0 1015210
08:00+10nw51385100 0.0 1016947
11:00+14nnw91466100 0.1 10151568
14:00+14nnw91469100 0.4 10161646
17:00+13nnw8167998 0.8 10161642
20:00+11nnw7148698 1.7 1018768
21 may, fri
fri2123:00+10nnw7168635 0.2 1020662
02:00+10nnw716835 0.3 1021637
05:00+9nnw615841 0.0 1021566
08:00+12nnw612770 0.0 1022639
11:00+16nnw67580 0.0 10221224
14:00+18n34493 0.0 10211652
17:00+18nw2349100 0.0 10201732
20:00+13sse00679 0.0 101911
22 may, sat
sat2223:00+10sse227397 0.0 101923
02:00+9sse338027 0.0 101948
05:00+8sse368266 0.0 101792
08:00+13sse587395 0.0 1017270
11:00+18sse57585 0.0 1016754
14:00+21s47494 0.0 10151677
17:00+22s375364 0.0 10141868
20:00+16sw3474100 0.0 101558